FW6591 Weather Reports


time (UTC)temp
C
wind
direction
speed
KPH
gust
KPH
rain 1hr
cm
rain 24hr
cm
rain mn
cm
humidity
%
barometer
mb
20260905150055 16 0 0.0 3.2 0.00 0.00 0.00 63 1029.0
20260905144553 16 222 0.0 4.8 0.00 0.00 0.00 64 1028.8
20260905143057 16 191 1.6 6.4 0.00 0.00 0.00 63 1028.9
20260905141609 16 0 1.6 8.0 0.00 0.00 0.00 63 1028.9
20260905140058 16 95 1.6 6.4 0.00 0.00 0.00 63 1028.8
20260905134607 16 202 3.2 9.7 0.00 0.00 0.00 64 1028.6
20260905133057 16 173 6.4 9.7 0.00 0.00 0.00 67 1028.8
20260905131556 16 244 1.6 8.0 0.00 0.00 0.00 63 1028.9
20260905130101 16 0 1.6 8.0 0.00 0.00 0.00 67 1029.0
20260905124555 15 40 0.0 3.2 0.00 0.00 0.00 72 1029.3
20260905123056 14 217 3.2 6.4 0.00 0.00 0.00 71 1029.5
20260905121545 13 213 1.6 6.4 0.00 0.00 0.00 73 1030.0
20260905120058 13 219 0.0 4.8 0.00 0.00 0.00 74 1030.0
20260905114626 13 203 3.2 11.3 0.00 0.00 0.00 75 1030.2
20260905113050 13 212 6.4 12.9 0.00 0.00 0.00 73 1030.5
20260905111553 13 200 1.6 6.4 0.00 0.00 0.00 76 1030.6
20260905110044 13 223 1.6 11.3 0.00 0.00 0.00 74 1030.8
20260905104553 12 227 1.6 6.4 0.00 0.00 0.00 75 1030.7
20260905103052 13 245 3.2 9.7 0.00 0.00 0.00 73 1031.0
20260905101557 12 157 6.4 12.9 0.00 0.00 0.00 77 1031.4
20260905100114 11 212 3.2 8.0 0.00 0.00 0.00 80 1031.6
20260905094610 11 242 4.8 11.3 0.00 0.00 0.00 81 1032.1
20260905093059 11 192 4.8 9.7 0.00 0.00 0.00 83 1032.3
20260905091612 10 82 1.6 6.4 0.00 0.00 0.00 82 1032.6
20260905090056 10 136 1.6 4.8 0.00 0.00 0.00 81 1032.6
20260905084553 10 182 1.6 4.8 0.00 0.00 0.00 82 1032.3
20260905083050 10 215 1.6 4.8 0.00 0.00 0.00 84 1032.9
20260905081556 10 106 3.2 8.0 0.00 0.00 0.00 82 1032.8
20260905080056 10 217 0.0 4.8 0.00 0.00 0.00 81 1032.8
20260905074600 10 222 0.0 3.2 0.00 0.05 0.00 83 1032.8
20260905073108 9 125 1.6 8.0 0.00 0.05 0.00 84 1032.6
20260905071558 9 171 3.2 6.4 0.00 0.05 0.00 86 1032.3
20260905070047 8 215 0.0 3.2 0.00 0.05 0.00 88 1032.6
20260905064608 8 214 0.0 3.2 0.00 0.10 0.00 90 1032.3
20260905063053 7 0 1.6 3.2 0.00 0.10 0.00 90 1032.3
20260905061613 7 235 1.6 3.2 0.00 0.10 0.00 91 1032.3
20260905054602 6 0 0.0 1.6 0.00 0.13 0.00 92 1032.3
20260905053056 6 0 0.0 0.0 0.00 0.13 0.00 93 1032.3
20260905051610 6 0 0.0 0.0 0.00 0.13 0.00 92 1032.2
20260905050056 6 0 0.0 0.0 0.00 0.13 0.00 92 1032.2
20260905044559 5 0 0.0 3.2 0.00 0.13 0.00 92 1032.1
20260905043049 6 0 1.6 6.4 0.00 0.13 0.00 92 1032.1
20260905041558 6 0 0.0 3.2 0.00 0.13 0.00 92 1031.7
20260905040058 6 319 0.0 3.2 0.00 0.13 0.00 92 1031.6
20260905034605 5 360 0.0 3.2 0.00 0.13 0.00 92 1031.4
20260905033102 6 0 0.0 3.2 0.00 0.13 0.00 92 1031.1
20260905031613 6 0 1.6 3.2 0.00 0.13 0.00 91 1030.9
20260905030054 6 0 0.0 3.2 0.00 0.13 0.00 91 1030.8
20260905024554 6 0 0.0 3.2 0.00 0.15 0.00 91 1030.7
20260905023122 6 0 0.0 0.0 0.00 0.15 0.00 91 1030.7
20260905021546 6 351 0.0 3.2 0.00 0.15 0.00 91 1030.8
20260905020059 6 348 3.2 4.8 0.00 0.15 0.00 91 1030.8
20260905014555 6 360 3.2 6.4 0.00 0.18 0.00 91 1030.8
20260905013049 5 351 1.6 4.8 0.00 0.18 0.00 91 1030.8
20260905011556 5 349 4.8 6.4 0.00 0.18 0.00 91 1030.9
20260905010047 6 351 0.0 3.2 0.00 0.18 0.00 90 1031.2
20260905004556 6 345 3.2 4.8 0.00 0.28 0.00 90 1031.5
20260905003050 6 0 0.0 3.2 0.00 0.28 0.00 90 1031.3
20260905001546 6 0 0.0 3.2 0.00 0.28 0.00 90 1031.5
20260905000113 6 346 1.6 4.8 0.00 0.28 0.00 90 1031.6
20260904234557 6 0 3.2 6.4 0.00 0.28 0.00 90 1031.9
20260904233050 6 0 0.0 3.2 0.00 0.28 0.00 89 1031.7
20260904231548 6 348 1.6 6.4 0.00 0.28 0.00 89 1032.0
20260904230058 6 239 0.0 3.2 0.00 0.28 0.00 89 1032.2
20260904224603 6 350 3.2 6.4 0.00 0.28 0.00 89 1032.6
20260904223054 6 0 0.0 12.9 0.00 0.28 0.00 89 1032.6
20260904221600 6 200 1.6 3.2 0.00 0.28 0.00 89 1032.5
20260904220112 6 202 0.0 3.2 0.00 0.28 0.00 89 1032.3
20260904214549 7 0 0.0 4.8 0.00 0.28 0.28 88 1032.1
20260904213051 7 191 0.0 1.6 0.00 0.28 0.28 88 1032.1
20260904211554 7 0 0.0 3.2 0.00 0.28 0.28 88 1032.5
20260904210059 7 221 0.0 6.4 0.00 0.28 0.28 88 1032.5
20260904204558 7 192 3.2 8.0 0.00 0.28 0.28 88 1032.4
20260904203050 7 177 4.8 11.3 0.00 0.28 0.28 88 1032.8
20260904201548 7 188 6.4 9.7 0.00 0.28 0.28 88 1033.0
20260904200045 7 214 4.8 8.0 0.00 0.28 0.28 87 1033.0
20260904194601 8 213 4.8 9.7 0.00 0.28 0.28 86 1033.0
20260904193049 8 195 8.0 12.9 0.00 0.28 0.28 85 1032.9
20260904191550 8 210 4.8 9.7 0.00 0.28 0.28 84 1033.1
20260904190059 8 168 6.4 12.9 0.00 0.28 0.28 83 1033.1
20260904184557 9 14 6.4 12.9 0.00 0.28 0.28 81 1033.2
20260904183049 10 195 8.0 17.7 0.00 0.28 0.28 80 1033.4
20260904181606 10 183 6.4 14.5 0.00 0.28 0.28 79 1033.5
20260904180116 10 180 8.0 16.1 0.00 0.28 0.28 78 1033.4
20260904174610 11 184 6.4 12.9 0.00 0.28 0.28 75 1033.2
20260904173051 11 249 6.4 12.9 0.00 0.28 0.28 73 1033.2
20260904171545 11 248 8.0 16.1 0.00 0.28 0.28 72 1033.1
20260904170059 11 215 8.0 12.9 0.00 0.28 0.28 73 1033.1
20260904164555 11 165 6.4 19.3 0.00 0.30 0.28 73 1033.0
20260904163101 11 167 4.8 20.9 0.00 0.30 0.28 73 1032.8
20260904161600 12 111 6.4 16.1 0.00 0.30 0.28 73 1032.8
20260904160057 12 232 8.0 17.7 0.00 0.30 0.28 72 1032.6
20260904154555 12 274 9.7 19.3 0.00 0.33 0.28 71 1032.5
20260904153051 12 184 8.0 19.3 0.00 0.33 0.28 71 1032.6
20260904151601 12 253 9.7 17.7 0.00 0.33 0.28 72 1032.5